Regional Weather Roundup
Issued by NWS

Home | Current Version | Previous Version | Text Only | Print | Product List | Glossary On
Versions: 1 2 3 4 5 6 7 8 9 10 11 12 13 14 15 16 17 18 19 20 21 22 23 24 25 26 27 28 29 30 31 32 33 34 35 36 37 38 39 40 41 42 43 44 45 46 47 48 49 50
000
ASUS43 KLMK 190310
RWRKY
KENTUCKY REGIONAL WEATHER ROUNDUP
NATIONAL WEATHER SERVICE LOUISVILLE KY
1100 PM EDT FRI APR 18 2014

NOTE "FAIR" INDICATES FEW OR NO CLOUDS BELOW 12,000 FEET
WITH NO SIGNIFICANT WEATHER AND/OR OBSTRUCTIONS TO VISIBILITY.

KYZ001>023-026-027-061>063-070>075-190400-
WESTERN AND SOUTH CENTRAL KENTUCKY

CITY           SKY/WX    TMP DP  RH WIND       PRES   REMARKS
PADUCAH        MOCLDY    60  42  51 CALM      30.20R
HENDERSON      MOCLDY    55  46  71 CALM      30.21S
OWENSBORO      MOCLDY    61  42  49 N5        30.21R
HOPKINSVILLE   MOCLDY    61  43  51 NE6       30.20R
BOWLING GREEN  MOCLDY    56  48  74 CALM      30.20S
GLASGOW        MOCLDY    54  45  73 CALM      30.20F
$$

KYZ024-025-028>034-038-045-046-053-190400-
NORTH CENTRAL KENTUCKY

CITY           SKY/WX    TMP DP  RH WIND       PRES   REMARKS
LOUISVILLE/SDF MOCLDY    63  40  42 CALM      30.21S
LOUISVILLE/LOU MOCLDY    61  41  47 CALM      30.22R
FORT KNOX      MOCLDY    58  40  51 CALM      30.20S
$$

KYZ035>037-039>044-047>052-055>060-089>105-190400-
NORTHEAST KENTUCKY

CITY           SKY/WX    TMP DP  RH WIND       PRES   REMARKS
LEXINGTON      MOCLDY    57  41  55 CALM      30.23R
COVINGTON      MOCLDY    57  39  51 CALM      30.23S
FRANKFORT      MOCLDY    51  42  71 CALM      30.21S
$$

KYZ054-064>069-076>088-106>120-190400-
SOUTHEAST KENTUCKY

CITY           SKY/WX    TMP DP  RH WIND       PRES   REMARKS
JACKSON        CLOUDY    61  34  36 NE7       30.21S
LONDON         CLOUDY    59  42  53 N5        30.20S
SOMERSET       MOCLDY    59  41  51 NE6       30.22S
MIDDLESBORO    CLOUDY    55  42  62 CALM      30.22R
MONTICELLO     CLOUDY    51  47  86 CALM      30.22S
$$




USA.gov is the U.S. government's official web portal to all federal, state and local government web resources and services.